Location: Desert Center
(33.7130°N, 115.4010°W)
Time: 14:15:00
(UTC-08:00)

Daily predictions for brighter satellites

Satellite Brightness Start Highest point End
(mag) Time Altitude Azimuth Time Altitude Azimuth Time Altitude Azimuth
ATLAS 2AS CENTAUR R/B 3.9 16:50:55 10° N 16:57:33 27° NE 17:03:50 10° E
Cosmos 1378 Rocket 4.1 16:55:14 10° SSW 16:59:29 61° W 17:03:45 10° N
Cosmos 1844 Rocket 2.7 16:55:21 10° S 17:00:51 64° ESE 17:06:23 10° NNE
Cosmos 2181 Rocket 4.1 16:55:30 10° S 17:01:48 82° E 17:08:12 10° N
MOS 1 4.3 16:57:27 10° SSE 17:03:02 65° ENE 17:08:38 10° N
SL-27 R/B 4.1 17:02:11 10° NNE 17:04:33 16° ENE 17:06:54 10° ESE
BREEZE-M DEB (TANK) 4.2 17:05:20 10° WNW 17:06:16 12° NNW 17:07:08 10° N
Cosmos 2218 Rocket 4.4 17:00:37 10° N 17:06:28 40° E 17:12:14 10° SSE
ISS -2.5 17:04:41 10° WSW 17:07:52 46° NW 17:11:04 10° NE
Cosmos 1844 3.9 17:02:42 10° S 17:08:05 53° ESE 17:13:29 10° NNE
SKYMED 2 4.4 17:07:51 10° NE 17:11:43 31° E 17:15:35 10° SSE
SL-8 R/B 4.1 17:08:12 10° SSW 17:12:46 48° SE 17:17:03 12° ENE
Cosmos 1455 Rocket 3.9 17:10:53 10° NNE 17:14:41 28° ENE 17:18:28 10° SE
SJ-7 4.4 17:12:02 10° SSE 17:16:11 68° ENE 17:20:24 10° N
CORIOLIS 4.1 17:15:20 10° SSE 17:20:44 76° ENE 17:26:09 10° N
CZ-4 R/B 4.4 17:19:08 10° SSE 17:23:13 64° ENE 17:27:20 10° N
Cosmos 1048 Rocket 4.3 17:20:17 10° NNW 17:25:36 75° WSW 17:30:56 10° S
CZ-3B DEB 1.9 17:23:05 10° SW 17:26:08 66° NW 17:33:40 10° NE
Cosmos 2278 Rocket 2.6 17:21:06 10° S 17:26:25 44° ESE 17:31:45 10° NE
Cosmos 158 Rocket 4.0 17:22:46 10° NNW 17:28:08 77° ENE 17:33:21 10° SSE
MONITOR-E 4.4 17:26:05 10° SSE 17:29:09 48° ENE 17:32:15 10° N
Cosmos 1484 Rocket 3.2 17:25:40 10° SE 17:29:11 37° ENE 17:32:40 10° N
COSMOS 2406 3.2 17:23:34 10° NNW 17:29:18 79° ENE 17:35:02 10° SSE
CZ-3A R/B 4.3 17:25:06 10° WNW 17:29:44 34° N 17:48:14 10° NE
CZ-2C R/B 2.8 17:28:23 10° S 17:33:13 67° W 17:38:14 10° NNW
SPOT 3 Rocket 4.1 17:30:27 10° S 17:35:35 63° WSW 17:40:45 10° NNW
Tiangong 1 2.8 17:35:24 10° S 17:37:34 18° SE 17:38:20 17° ESE
SL-08 R/B 4.5 17:31:37 10° N 17:38:00 69° E 17:44:13 10° SSE
Meteor 1-5 Rocket 4.4 17:34:26 10° NNW 17:39:49 72° W 17:45:23 10° S
Cosmos 1238 Rocket 2.1 17:37:21 10° S 17:40:25 78° W 17:43:21 10° N
OAO 1 4.5 17:36:14 10° WSW 17:41:44 89° SSE 17:45:19 22° E
Okean 1 3.2 17:45:27 10° S 17:49:27 72° E 17:53:30 10° N
IDEFIX/ARIANE 42P 3.6 17:44:59 10° S 17:50:00 48° W 17:55:01 10° NNW
COSMOS 2441 4.4 17:45:49 10° SSE 17:50:39 87° WSW 17:55:33 10° NNW
Cosmos 2082 Rocket 4.1 17:51:47 10° NNE 17:52:44 13° NNE 17:52:44 13° NNE
Nadezhda 3 Rocket 4.0 17:51:25 10° SSE 17:57:22 53° E 18:03:24 10° NNE
Hubble Space Telescope 2.8 17:55:56 10° WSW 17:59:15 23° SSW 18:02:26 11° SE
COSMO-SKYMED 1 2.9 17:55:30 10° N 17:59:48 66° WNW 18:04:05 10° SSW
Cosmos 1544 Rocket 4.3 17:58:17 10° NNW 18:02:40 56° W 18:07:01 10° S
Cosmos 1500 3.3 18:03:20 42° NE 18:04:07 50° E 18:07:50 10° SSE
Meteor 1-28 Rocket 3.1 18:04:51 25° NNE 18:07:00 86° ESE 18:10:48 10° S
Meteor 2-21 4.4 18:03:47 10° N 18:09:55 62° E 18:15:58 10° SSE
Cosmos 1346 Rocket 2.6 18:08:49 10° S 18:12:46 88° E 18:14:10 39° N
METEOR-M 4.1 18:12:18 10° SSE 18:17:30 55° ENE 18:22:42 10° N
NOAA 12 3.9 18:14:51 10° SSE 18:20:06 71° ENE 18:25:22 10° N
OTV 4 2.3 18:25:01 10° WNW 18:26:41 30° WNW 18:26:41 30° WNW
Cosmos 494 Rocket 4.2 18:24:11 10° NNW 18:29:23 69° WSW 18:34:36 10° S
Cosmos 1975 3.8 18:29:49 10° NNW 18:33:43 46° W 18:37:35 10° SSW
Meteor 2-14 Rocket 4.3 18:28:39 10° N 18:34:48 73° E 18:40:55 10° SSE
Cosmos 2251 Rocket 4.4 18:31:44 10° NNW 18:36:53 49° WSW 18:41:57 10° S
Okean 1-7 Rocket 3.6 18:34:19 10° S 18:38:51 78° W 18:38:57 77° WNW
GEOS 3 Rocket 4.4 18:44:13 10° SSE 18:49:08 47° WSW 18:54:03 10° NW
ATLAS 2AS CENTAUR R/B 3.2 18:41:18 10° NW 18:49:13 68° WSW 18:56:29 10° SSE
Cosmos 921 Rocket 4.2 18:46:37 10° SSW 18:49:08 35° SSW 18:49:08 35° SSW
Cosmos 2297 3.9 18:46:59 10° SSW 18:52:36 68° WNW 18:53:32 58° NNW
Meteor 2-16 Rocket 4.4 18:49:40 10° N 18:55:45 83° W 19:01:50 10° S
Timation 2 Rocket 4.4 18:53:03 10° NNW 18:58:19 53° N 18:58:19 53° N
Cosmos 1535 Rocket 4.4 18:54:05 10° N 19:00:26 88° W 19:06:39 10° S
BREEZE M DEB (TANK) 4.4 18:55:36 10° W 19:01:07 26° NW 19:01:07 26° NW
Cosmos 2278 Rocket 4.3 19:06:23 10° WSW 19:10:40 22° WNW 19:13:52 14° NNW
ATLAS 3B CENTAUR R/B 4.1 19:52:23 10° W 19:59:39 35° WSW 19:59:39 35° WSW
